SCP
0 0 0 0 0 0 0 0 0 0 0 0 0 0 0 0 0 0 0 0 0 0 0 0 0 0 0 0 0 0 0 0 0 0 0 1 1 1 0 0 0 0 0
0 0 0 0 0 0 0 0 0 0 0 0 0 0 0 0 0 0 0 0 0 0 0 0 0 0 0 0 0 0 0 0 0 0 0 0 1 1 0 0 0 0 0
0 0 0 0 0 0 0 0 0 0 0 0 0 0 0 0 0 0 0 0 0 0 0 0 0 0 0 0 0 0 0 0 0 0 0 0 1 0 0 0 0 0 0
0 0 0 0 0 0 0 0 0 0 0 0 0 0 0 0 0 0 0 0 0 0 0 0 0 0 0 0 0 0 0 0 0 0 0 0 0 0 0 0 0 0 0
0 0 0 0 0 0 0 0 0 0 0 0 0 0 0 0 0 0 0 0 0 0 0 0 0 0 0 0 0 0 0 0 0 0 0 0 0 0 0 0 0 0 0
0 0 0 0 0 0 0 0 0 0 0 0 0 0 0 0 0 0 0 0 0 0 0 0 0 0 0 0 0 0 0 0 0 0 0 0 0 0 0 0 0 0 0
0 0 0 0 0 0 0 0 0 0 0 0 0 0 0 0 0 0 0 0 0 0 0 0 0 0 0 0 0 0 0 0 0 0 0 0 0 0 0 0 0 0 0
0 0 0 0 0 0 0 0 0 0 0 0 0 0 0 0 0 0 0 0 0 0 0 0 0 0 0 0 0 0 0 0 0 0 0 0 0 0 0 0 0 0 0
0 0 0 0 0 0 0 0 0 0 0 0 0 0 0 0 0 0 0 0 0 0 0 0 0 0 0 0 0 0 0 0 0 0 0 0 0 0 0 0 0 0 0
0 0 0 0 0 0 0 0 0 0 0 0 0 0 0 0 0 0 0 0 0 0 0 0 0 0 0 0 0 0 0 0 0 0 0 0 0 0 0 0 0 0 0
0 0 0 0 0 0 0 0 0 0 0 0 0 0 0 0 0 0 0 0 0 0 0 0 0 0 0 0 0 0 0 0 0 0 0 0 0 0 0 0 0 0 0
0 0 0 0 0 0 0 0 0 0 0 0 0 0 0 0 0 0 0 0 0 0 0 0 0 0 0 0 0 0 0 0 0 0 0 0 0 0 0 0 0 0 0
0 0 0 0 0 0 0 0 0 0 0 0 0 0 0 0 0 0 0 0 0 0 0 0 0 0 0 0 0 0 0 0 0 0 0 0 0 0 0 0 0 0 0
0 0 0 0 0 0 0 0 0 0 0 0 0 0 0 0 0 0 0 0 0 0 0 0 0 0 0 0 0 0 0 0 0 0 0 0 0 0 0 0 0 0 0
0 0 0 0 0 0 0 0 0 0 0 0 0 0 0 0 0 0 0 0 0 0 0 0 0 0 0 0 0 0 0 0 0 0 0 0 0 0 0 0 0 0 0
0 0 0 0 0 0 0 0 0 0 0 0 0 0 -0 -0 0 0 0 0 0 0 0 0 0 0 0 0 0 0 0 0 0 0 0 0 0 0 0 0 0 0 0
0 0 0 0 0 0 0 0 0 0 0 0 0 0 0 -0 0 0 0 0 0 0 0 0 0 0 0 0 0 0 0 0 0 0 0 0 0 0 0 0 0 0 0
0 0 0 0 0 0 0 0 0 0 0 0 0 0 0 0 0 0 0 0 0 0 0 0 0 0 0 0 0 0 0 0 0 0 0 0 0 0 0 0 0 0 0
0 0 0 0 0 0 0 0 0 0 0 0 0 0 0 0 0 0 0 0 0 0 0 0 0 0 0 0 0 0 0 0 0 0 0 0 0 0 0 0 0 0 0
0 0 0 0 0 0 0 0 0 0 0 0 0 0 0 0 0 0 0 0 0 0 0 0 0 0 0 0 0 0 0 0 0 0 0 0 0 0 0 0 0 0 0
0 0 0 0 0 0 0 0 0 0 0 0 0 0 0 0 0 0 0 0 0 0 0 0 0 0 0 0 0 0 0 0 0 0 0 0 0 0 0 0 0 0 0
0 0 0 0 0 0 0 0 0 0 0 0 0 0 0 0 0 0 0 0 0 0 0 0 0 0 0 0 0 0 0 0 0 0 0 0 0 0 0 0 0 0 0
0 0 0 0 0 0 0 0 0 0 0 0 0 0 0 0 0 0 0 0 0 0 0 0 0 0 0 0 0 0 0 0 0 0 0 0 0 0 0 0 0 0 0
0 0 0 0 0 0 0 0 0 0 0 0 0 0 0 0 0 0 0 0 0 0 0 0 0 0 0 0 0 0 0 0 0 0 0 0 0 0 0 0 0 0 0
0 0 0 0 0 0 0 0 0 0 0 0 0 0 0 0 0 0 0 0 0 0 0 0 0 0 0 0 0 0 0 0 0 0 0 0 0 0 0 0 0 0 0
0 0 0 0 0 0 0 0 0 0 0 0 0 0 0 0 0 0 0 0 0 0 0 0 0 0 0 0 0 0 0 0 0 0 0 0 0 0 0 0 0 0 0
Wind_Speed
4 5 6 6 6 7 10 11 12 13 14 16 16 17 17 17 17 16 17 18 19 18 17 18 20 19 16 12 10 11 11 13 16 13 10 14 16 17 20 18 21 24 24
4 5 5 6 7 9 10 11 13 14 14 16 16 17 18 18 18 18 19 19 19 19 18 19 20 16 19 14 11 12 12 12 14 16 12 14 17 20 22 21 20 17 21
4 4 6 7 8 10 11 12 13 14 15 16 16 17 18 19 19 19 19 19 19 19 19 20 20 19 19 14 12 11 10 11 11 12 14 13 14 17 23 20 21 18 18
3 5 7 8 9 10 12 12 13 14 15 16 17 18 19 19 20 20 20 20 19 19 19 20 20 20 19 17 13 11 9 10 10 11 14 13 14 19 19 21 20 17 16
3 5 7 9 10 11 12 12 13 14 15 16 18 18 19 18 17 19 19 20 19 20 19 20 20 21 24 21 14 10 9 9 10 11 14 13 14 19 19 16 19 17 15
3 6 8 10 10 11 12 13 14 14 15 16 17 19 19 16 25 31 27 21 20 20 20 19 19 21 22 29 29 25 20 14 13 13 11 13 16 16 13 17 18 17 15
3 5 8 9 10 11 12 13 14 15 16 17 17 18 20 23 31 32 32 24 21 20 20 18 16 16 19 16 20 24 22 24 25 19 18 16 15 16 18 21 20 22 14
3 5 6 8 10 11 12 13 14 14 15 16 17 19 20 22 32 33 33 24 20 20 19 19 19 19 18 18 15 15 16 16 19 17 19 19 17 18 22 20 21 14 10
4 5 6 8 9 11 12 14 14 14 15 15 16 17 19 22 30 33 32 17 16 19 18 18 19 19 24 27 20 17 17 16 20 24 26 26 24 24 23 19 18 18 16
4 6 7 7 7 10 12 14 14 14 15 16 16 16 18 19 28 33 32 14 15 16 15 15 19 22 26 28 19 16 17 15 12 13 18 19 22 25 29 26 23 21 18
4 6 7 7 8 10 11 12 13 14 15 14 16 15 15 18 24 30 31 17 15 16 14 12 13 24 28 28 25 17 19 16 12 13 13 12 16 19 22 21 21 22 18
4 6 7 7 7 8 10 12 12 13 14 14 14 15 12 15 20 26 32 29 26 18 15 13 13 23 26 26 21 20 23 19 10 10 10 11 14 16 17 18 18 18 17
4 5 6 7 7 8 9 11 10 10 10 12 13 14 15 14 17 27 29 31 31 20 15 23 25 27 25 20 22 23 16 10 9 9 10 9 11 14 14 11 11 10 10
3 4 5 6 9 9 8 8 8 10 10 12 13 15 16 16 16 17 16 18 21 19 16 18 24 25 21 17 14 13 10 9 8 9 8 7 9 12 12 11 12 12 11
2 3 5 5 7 9 9 7 10 9 12 15 12 13 16 17 22 34 26 19 18 18 18 11 8 8 8 8 8 8 8 8 9 9 8 7 9 11 12 13 10 13 10
3 4 4 5 6 7 8 10 14 15 21 22 22 21 17 25 34 33 34 32 30 30 16 9 8 7 6 6 6 7 7 8 8 8 8 9 10 12 12 12 13 13 13
3 2 3 4 6 7 7 8 10 13 18 20 24 27 28 31 32 33 33 30 29 26 14 13 12 11 11 9 8 7 7 7 8 8 8 10 11 11 13 14 14 13 11
3 1 2 3 4 5 6 6 7 9 12 13 18 26 31 32 31 33 33 24 18 18 14 14 13 12 12 11 11 10 8 7 7 8 8 9 10 11 13 14 13 13 11
4 1 1 2 3 4 5 5 6 7 8 11 12 16 23 27 26 30 28 16 16 16 15 14 14 13 12 12 11 11 11 9 7 6 8 9 10 11 12 13 12 14 11
3 2 2 2 3 3 4 5 6 7 8 9 11 13 15 15 14 17 16 15 15 15 16 15 15 15 14 12 12 11 11 10 8 6 8 9 10 11 13 14 14 15 12
3 2 2 2 2 3 4 4 5 6 7 8 9 14 23 12 13 15 14 15 15 16 16 16 15 16 15 13 12 13 14 11 10 7 6 9 10 10 10 12 12 13 12
4 3 2 1 2 3 3 4 4 5 7 8 9 11 19 12 11 12 13 13 14 14 15 15 15 15 16 15 14 14 13 12 11 11 8 5 10 11 11 12 12 13 14
4 4 3 2 2 3 3 4 4 5 6 7 8 9 10 11 11 12 13 13 14 14 15 15 15 16 17 16 15 13 14 13 12 11 10 7 7 11 11 11 14 15 15
4 4 3 2 2 3 3 4 4 5 6 7 7 8 9 10 11 13 13 13 13 14 15 15 16 21 27 22 17 15 15 16 15 10 12 8 4 7 10 11 13 15 15
4 4 3 3 2 2 3 3 4 4 5 6 7 8 9 9 10 11 12 12 15 15 18 17 16 19 24 28 26 23 26 28 24 17 13 11 9 3 3 10 10 12 10
5 4 3 3 2 1 2 2 3 4 4 5 6 7 8 9 9 10 11 12 13 14 15 15 21 24 24 22 27 31 32 31 29 27 18 14 16 14 10 4 2 6 10
Wind_Direction
269 272 279 285 287 287 289 290 292 293 294 293 294 294 293 291 288 282 277 276 273 272 270 270 268 271 272 256 240 240 241 241 249 256 258 267 227 177 170 167 161 161 156
268 278 291 297 297 294 291 293 295 295 294 294 296 295 293 291 288 283 280 277 274 273 272 271 269 268 271 263 246 243 245 243 245 253 259 265 227 179 169 166 164 163 159
275 295 303 300 297 296 297 298 299 298 297 298 298 296 294 292 289 284 280 277 274 272 271 271 270 266 269 266 254 248 250 249 246 249 256 260 233 179 168 165 164 160 157
295 310 304 301 301 300 300 300 300 301 302 302 299 297 295 292 289 286 282 278 275 272 270 268 267 262 263 265 257 248 253 254 250 251 251 251 233 179 168 163 162 158 156
315 310 303 305 303 301 302 303 305 305 304 303 302 299 296 293 287 285 282 277 273 270 267 265 265 262 259 263 262 253 249 254 253 254 246 242 229 179 168 161 159 152 151
309 307 311 305 304 305 308 310 311 309 307 305 303 302 300 296 294 293 290 283 279 274 271 267 266 264 261 261 260 259 255 254 256 254 257 244 221 178 159 159 153 152 154
304 299 298 302 307 311 315 316 314 312 309 307 306 305 302 299 299 298 295 291 283 276 269 265 262 261 261 259 262 262 261 257 259 256 250 254 227 173 160 160 160 160 155
287 279 292 312 315 319 320 317 313 312 311 309 308 304 303 303 305 304 302 297 288 280 267 259 259 259 257 259 259 259 259 258 258 255 249 249 235 182 167 160 153 136 123
293 303 316 323 321 320 317 314 314 312 308 305 304 307 305 304 305 306 305 299 291 287 274 258 253 255 255 255 254 255 260 263 267 260 261 251 225 183 161 149 148 148 151
304 317 325 325 319 314 311 310 310 308 304 307 307 305 302 302 304 309 312 305 302 297 287 267 254 251 252 250 247 248 255 262 267 276 274 239 200 173 162 161 160 159 155
326 326 327 328 318 305 303 306 307 306 307 306 305 306 305 306 308 312 313 312 304 299 292 281 259 256 254 249 244 242 249 258 265 269 270 222 184 172 168 165 166 162 160
351 335 325 316 307 306 304 305 307 307 309 310 311 313 316 315 313 314 316 314 310 302 292 283 271 263 259 255 249 244 247 250 254 257 258 217 181 172 169 167 168 168 168
357 332 316 313 312 310 306 308 311 311 315 319 321 324 324 321 319 319 316 316 314 306 290 284 279 273 264 257 254 248 240 233 238 245 246 217 183 167 159 150 145 132 116
10 341 333 329 321 318 311 311 313 316 322 323 328 328 324 324 324 322 321 321 317 310 296 284 281 274 261 245 248 246 227 223 226 238 241 209 172 161 161 154 150 143 133
43 9 345 324 315 315 315 314 315 321 323 331 333 329 327 327 330 334 335 329 325 319 314 292 276 270 254 238 235 231 222 219 222 230 229 198 169 162 162 158 153 153 151
62 25 346 325 320 316 317 317 327 339 338 341 342 340 331 334 338 342 344 345 344 349 349 342 338 324 304 283 254 234 224 223 225 225 214 188 173 166 161 161 162 164 161
95 34 333 327 320 319 322 328 330 334 340 345 345 343 347 349 350 351 355 356 357 5 8 2 356 349 339 326 308 278 246 230 224 218 205 185 172 166 164 167 169 168 161
104 68 334 310 308 309 316 325 329 333 333 334 339 343 351 357 357 358 2 1 0 7 4 360 353 347 342 336 328 315 295 260 228 213 198 180 171 168 168 170 172 170 161
101 79 352 311 302 304 316 326 333 335 331 328 333 339 350 355 358 1 5 3 359 359 357 356 353 348 343 339 332 323 312 291 255 211 190 177 172 168 170 171 170 164 158
99 61 28 333 323 332 340 347 349 343 339 336 340 334 346 354 355 356 358 356 356 354 353 353 353 350 346 344 341 335 326 312 286 226 190 179 175 175 172 171 173 174 173
116 85 33 8 353 345 348 349 344 339 337 334 332 333 359 356 350 351 352 352 351 350 350 351 353 353 351 349 348 345 340 331 325 300 210 180 176 174 174 174 173 174 171
126 125 95 40 3 352 352 349 344 339 336 335 332 335 350 354 349 350 349 348 346 345 347 348 352 357 355 352 352 351 347 340 335 331 311 214 179 176 174 175 175 175 174
131 128 109 68 25 359 8 6 354 346 340 333 333 338 343 346 346 346 345 344 344 345 347 351 352 359 0 357 355 358 355 344 332 322 315 284 201 181 177 178 178 178 179
132 128 118 96 52 27 19 11 359 351 341 334 335 337 339 339 339 340 341 340 342 343 347 351 353 356 2 4 1 2 7 1 349 339 333 318 254 187 182 182 183 184 183
134 131 122 107 79 41 20 12 2 347 338 335 336 335 335 335 337 338 338 339 340 342 346 350 353 354 360 5 8 7 12 15 13 9 5 9 13 14 185 184 184 181 181
143 141 136 130 116 75 32 12 354 342 334 332 331 328 329 331 332 334 336 339 339 339 342 346 350 353 358 7 9 12 14 20 22 21 22 25 30 28 26 35 131 177 178